Вернуться в каталог

STARLINK-4360

АктивенСвязьSSO
NORAD 53482·PAYLOAD·🇺🇸 United States

Запущен Aug 12, 2022 с Vandenberg Space Force Base

Loading…

Ближайшие Пролёты (ближайшие 24 часа)

TLE

СвежийSource: CelesTrak SupGP

Эпоха: Sep 15, 2026, 01:30 UTC

1 53482C 22099T   26258.06298611 -.00012764  00000+0 -77618-3 0  2581
2 53482  97.2855  12.2095 0002126  84.9070 288.4331 15.10545574    15

Отслеживайте STARLINK-4360 в реальном времени с AllMySat

Download on the App Store